STARLETTE 1 07646U 75010A 25261.05315939 -.00000131 00000+0 76407-5 0 9991 2 07646 49.8239 98.7547 0205719 244.0429 113.9139 13.82345029556896 LAGEOS 1 1 08820U 76039A 25260.75745840 .00000038 00000+0 00000+0 0 9997 2 08820 109.8448 86.0355 0044661 0.5868 347.4305 6.38664849895731 AJISAI (EGS) 1 16908U 86061A 25261.28161653 -.00000078 00000+0 13657-3 0 9993 2 16908 50.0077 263.4997 0011293 208.3039 155.0101 12.44513388446530 COSMOS 1989 (ETALON 1) 1 19751U 89001C 25260.63997541 .00000045 00000+0 00000+0 0 9997 2 19751 64.7869 81.5269 0023415 216.8014 126.5707 2.13156057285556 COSMOS 2024 (ETALON 2) 1 20026U 89039C 25259.80291160 -.00000047 00000+0 00000+0 0 9999 2 20026 65.0994 319.9467 0020371 214.5861 316.8065 2.13204473282674 LAGEOS 2 1 22195U 92070B 25260.83452377 -.00000009 00000+0 00000+0 0 9999 2 22195 52.6519 78.7552 0137761 68.4365 290.4819 6.47293897777784 STELLA 1 22824U 93061B 25261.23312322 -.00000031 00000+0 58614-5 0 9994 2 22824 98.8146 318.9458 0005562 315.4115 134.1093 14.27459231665974 LARETS 1 27944U 03042F 25261.27072309 .00000068 00000+0 22573-4 0 9997 2 27944 98.3820 53.3143 0012671 159.4823 200.6890 14.63784358173584 LARES 1 38077U 12006A 25261.26772419 -.00000048 00000+0 -55713-4 0 9996 2 38077 69.4913 36.7070 0011213 292.4065 67.5773 12.54931891622950 LARES-2 1 53105U 22080A 25260.67184435 -.00000015 00000+0 00000+0 0 9994 2 53105 70.1681 38.7674 0005085 33.8670 326.2203 6.38965088 74258